Weather History for KMLC - April, 2014

Change the Weather History Date:

Wednesday, April 2, 2014

  Actual Average Record
Temperature  
Mean Temperature 75 °F -  
Max Temperature 81 °F 69 °F 87 °F (1964)
Min Temperature 69 °F 46 °F 25 °F (1962)
Cooling Degree Days 10    
Growing Degree Days 25 (Base 50)    
Moisture  
Dew Point 63 °F    
Average Humidity 70    
Maximum Humidity 81    
Minimum Humidity 56    
Precipitation  
Precipitation 0.00 in - - ()
Sea Level Pressure  
Sea Level Pressure 29.76 in    
Wind  
Wind Speed 12 mph (South)    
Max Wind Speed 17 mph    
Max Gust Speed 26 mph    
Visibility 10 miles    
Events      
Averages and records for this station are not official NWS values.
T = Trace of Precipitation, MM = Missing Value Source: NWS Daily Summary

Daily Weather History Graph

Daily Weather History Graph

Search for Another Location

Airport or City:

Trip Planner

Search our weather history database for the weather conditions in past years. The results will help you decide how hot, cold, wet, or windy it might be!

Date:

Astronomy

Apr. 02, 2014 Rise Set
Actual Time 7:08 AM CDT 7:45 PM CDT
Civil Twilight 6:43 AM CDT 8:10 PM CDT
Nautical Twilight 6:13 AM CDT 8:40 PM CDT
Astronomical Twilight 5:42 AM CDT 9:11 PM CDT
Moon 9:00 AM CDT (4/2) 11:02 PM CDT (4/2)
Length of Visible Light 13h 27m
Length of Day
12h 36m
Waxing Crescent, 10% of the Moon is Illuminated
Apr 2
Waxing Crescent
Apr 7
First Quarter
Apr 15
Full
Apr 22
Last Quarter
Apr 29
New

Hourly Weather History & Observations

Time (CDT) Temp. Heat Index Dew Point Humidity Pressure Visibility Wind Dir Wind Speed Gust Speed Precip Events Conditions
12:53 AM 70.0 °F - 60.1 °F 71% 29.83 in 10.0 mi South 10.4 mph 18.4 mph N/A   Mostly Cloudy
1:53 AM 70.0 °F - 61.0 °F 73% 29.82 in 10.0 mi SSE 10.4 mph 20.7 mph N/A   Overcast
2:07 AM 69.8 °F - 62.6 °F 78% 29.84 in 10.0 mi SSE 12.7 mph 20.7 mph N/A   Overcast
2:53 AM 71.1 °F - 63.0 °F 75% 29.81 in 10.0 mi South 11.5 mph 20.7 mph N/A   Overcast
3:53 AM 71.1 °F - 63.0 °F 75% 29.80 in 10.0 mi SSE 11.5 mph 23.0 mph N/A   Overcast
4:53 AM 70.0 °F - 63.0 °F 78% 29.78 in 10.0 mi South 10.4 mph 21.9 mph N/A   Mostly Cloudy
5:53 AM 69.1 °F - 63.0 °F 81% 29.79 in 10.0 mi South 10.4 mph 17.3 mph N/A   Mostly Cloudy
7:41 AM 69.8 °F - 62.6 °F 78% 29.82 in 10.0 mi South 11.5 mph 20.7 mph N/A   Mostly Cloudy
7:51 AM 69.8 °F - 62.6 °F 78% 29.83 in 10.0 mi South 12.7 mph 20.7 mph N/A   Mostly Cloudy
7:53 AM 70.0 °F - 63.0 °F 78% 29.81 in 10.0 mi South 16.1 mph 21.9 mph N/A   Mostly Cloudy
8:53 AM 71.1 °F - 63.0 °F 75% 29.81 in 10.0 mi South 12.7 mph 24.2 mph N/A   Overcast
9:44 AM 71.6 °F - 62.6 °F 73% 29.83 in 10.0 mi South 15.0 mph 23.0 mph N/A   Overcast
9:53 AM 71.1 °F - 63.0 °F 75% 29.81 in 10.0 mi South 11.5 mph 24.2 mph N/A   Overcast
10:53 AM 73.0 °F - 63.0 °F 71% 29.81 in 10.0 mi South 12.7 mph 23.0 mph N/A   Overcast
11:53 AM 77.0 °F - 64.0 °F 64% 29.80 in 10.0 mi South 13.8 mph 24.2 mph N/A   Overcast
12:53 PM 77.0 °F - 64.0 °F 64% 29.78 in 10.0 mi South 17.3 mph 24.2 mph N/A   Overcast
1:53 PM 78.1 °F - 64.0 °F 62% 29.75 in 10.0 mi South 12.7 mph 24.2 mph N/A   Mostly Cloudy
2:53 PM 81.0 °F 82.5 °F 64.0 °F 56% 29.72 in 10.0 mi South 13.8 mph 24.2 mph N/A   Partly Cloudy
3:53 PM 80.1 °F 81.7 °F 64.0 °F 58% 29.70 in 10.0 mi South 15.0 mph 26.5 mph N/A   Overcast
4:53 PM 78.8 °F - 64.4 °F 61% 29.72 in 10.0 mi South 11.5 mph 23.0 mph N/A   Overcast
5:53 PM 80.1 °F 81.9 °F 64.9 °F 60% 29.68 in 10.0 mi South 10.4 mph 21.9 mph N/A   Scattered Clouds
6:53 PM 78.1 °F - 64.9 °F 64% 29.68 in 10.0 mi South 10.4 mph 20.7 mph N/A   Scattered Clouds
7:53 PM 78.1 °F - 64.0 °F 62% 29.67 in 10.0 mi South 8.1 mph 23.0 mph N/A   Mostly Cloudy
8:53 PM 75.9 °F - 64.9 °F 69% 29.68 in 10.0 mi South 11.5 mph 20.7 mph N/A   Scattered Clouds
9:53 PM 75.0 °F - 64.9 °F 71% 29.69 in 10.0 mi SSE 8.1 mph 24.2 mph N/A   Overcast
10:53 PM 73.9 °F - 64.9 °F 73% 29.69 in 10.0 mi SSE 11.5 mph 23.0 mph N/A   Mostly Cloudy
11:53 PM 73.0 °F - 64.0 °F 73% 29.69 in 10.0 mi South 11.5 mph 26.5 mph N/A   Overcast